[[{"header":{"parameterUnit":"m.s-1","parameterCategory":1,"la1":30.2991,"la2":30.254,"lo1":-89.0895,"lo2":-89.0444,"dy":0.0017,"dx":0.0017,"nx":28,"ny":28,"refTime":"2024-03-14T09:00:00:Z","depth":0,"parameterNumber":2,"parameterNumberName":"U-component_of_WINDS"},"data":[0,0,0,0,0,0,0,0,0,0,0,0,0,0,0,0,0,0,0,0,0,0,0,0,0,0,0,0,0,0,0,0,0,0,0,0,0,0,0,0,0,0,0,0,0,0,0,0,0,0,0,0,0,0,0,0,0,0,-5.5747,-5.5748,0,-5.5848,-5.5849,-5.585,-5.5796,-5.5794,-5.5791,-5.5788,-5.5887,-5.5892,-5.5897,0,0,0,0,0,0,0,0,0,0,0,0,0,-5.5505,-5.551,-5.5747,-5.5749,-5.575,-5.5848,-5.5849,-5.585,-5.5797,-5.5794,-5.579,-5.5787,-5.5885,-5.5891,-5.5897,0,0,0,0,0,0,0,0,0,0,0,0,0,-5.5608,-5.5512,-5.5747,-5.5735,-5.5735,-5.5847,-5.5849,-5.5851,-5.5798,-5.5794,-5.5789,-5.5786,-5.5883,-5.5891,-5.5898,-5.6027,0,0,-5.5922,-5.5925,0,0,0,0,0,0,0,0,-5.5603,-5.5617,-5.5736,-5.5736,-5.5736,-5.5806,-5.58,-5.591,-5.5799,-5.5774,-5.5788,-5.5784,-5.5863,-5.5872,-5.5899,-5.6031,-5.6036,-5.5922,-5.5927,-5.593,-5.5933,0,0,0,0,0,0,0,-5.5596,-5.5613,-5.5787,-5.5737,-5.5738,-5.5723,-5.5734,-5.582,-5.5839,-5.5775,-5.5772,-5.5785,-5.5862,-5.5892,-5.5901,-5.6037,-5.5922,-5.5929,-5.5934,-5.5937,-5.6279,-5.6284,0,0,0,0,0,0,-5.559,-5.5607,-5.5784,-5.579,-5.5658,-5.5731,-5.5742,-5.5787,-5.5838,-5.5842,-5.5788,-5.5782,-5.5881,-5.5892,-5.5905,-5.6057,-5.593,-5.5937,-5.5942,-5.6275,-5.628,-5.6285,0,0,0,0,0,0,-5.5585,-5.5606,-5.578,-5.5698,-5.5719,-5.574,-5.579,-5.5791,-5.5821,-5.5848,-5.5851,-5.5816,-5.5878,-5.5894,-5.5997,-5.606,-5.5941,-5.5948,-5.627,-5.6277,-5.6283,-5.6365,0,0,0,0,0,0,-5.5578,-5.5605,-5.5654,-5.5699,-5.5723,-5.5872,-5.5794,-5.5796,-5.5835,-5.5828,-5.5874,-5.5878,-5.5876,-5.5986,-5.6005,-5.6068,-5.5954,-5.6264,-5.6273,-5.6281,-5.6356,-5.6373,-5.6388,0,0,0,0,0,-5.557,-5.5672,-5.5657,-5.5678,-5.5786,-5.5875,-5.5889,-5.5886,-5.5841,-5.589,-5.5908,-5.5877,-5.6051,-5.5997,-5.6018,-5.6085,-5.626,-5.627,-5.628,-5.6349,-5.637,-5.6388,0,0,0,0,0,0,-5.5631,-5.5678,-5.5661,-5.5782,-5.5826,-5.5866,-5.5928,-5.5908,-5.5964,-5.5954,-5.5947,-5.5958,-5.6065,-5.6086,-5.6025,-5.6212,-5.6148,-5.6163,-5.6194,-5.6214,-5.6229,-5.622,-5.596,0,0,0,0,0,-5.566,-5.573,-5.5766,-5.5869,-5.5892,-5.5907,-5.5945,-5.594,-5.5984,-5.6001,-5.6026,-5.6069,-5.6133,-5.6175,-5.6236,-5.6361,-5.6369,-5.6417,-5.6433,-5.6446,-5.6457,-5.6524,-5.6545,-5.6318,-5.6318,-5.6318,0,0,-5.5717,-5.5752,-5.5796,-5.5882,-5.5915,-5.5986,-5.5922,-5.6,-5.6052,-5.6012,-5.6111,-5.6132,-5.6179,-5.6293,-5.6345,-5.6313,-5.6522,-5.6459,-5.6469,-5.6473,-5.6536,-5.6557,-5.6576,-5.6325,-5.6324,-5.6323,0,0,-5.5858,-5.5893,-5.5981,-5.6017,-5.6068,-5.6078,-5.61,-5.6145,-5.6157,-5.6257,-5.6228,-5.629,-5.6402,-5.6436,-5.6468,-5.6626,-5.6599,-5.6646,-5.6727,-5.6792,-5.681,-5.6825,-5.6879,-5.6899,-5.6659,-5.6659,-5.6659,0,-5.5923,-5.603,-5.6029,-5.611,-5.6148,-5.6119,-5.6208,-5.6242,-5.631,-5.6336,-5.6302,-5.6441,-5.6471,-5.6592,-5.6631,-5.6659,-5.6682,-5.6639,-5.6808,-5.6823,-5.6838,-5.6889,-5.691,-5.6664,-5.6663,-5.6663,-5.6662,0,-5.6106,-5.6181,-5.6247,-5.6315,-5.6362,-5.6446,-5.6457,-5.6504,-5.6496,-5.6509,-5.6611,-5.6646,-5.6713,-5.6743,-5.6735,-5.6864,-5.6842,-5.6808,-5.6743,-5.6865,-5.6912,-5.6932,-5.6671,-5.667,-5.6668,-5.6667,0,0,-5.6284,-5.6354,-5.6378,-5.6408,-5.6465,-5.6522,-5.6606,-5.6674,-5.6713,-5.6762,-5.683,-5.6927,-5.6896,-5.6933,-5.6929,-5.6986,-5.7107,-5.6945,-5.6946,-5.6971,-5.7249,-5.7271,-5.7294,-5.7091,-5.7095,-5.7098,-5.7244,0,-5.6427,-5.6574,-5.6576,-5.6711,-5.6779,-5.6754,-5.6827,-5.6869,-5.6884,-5.6944,-5.6961,-5.7028,-5.6984,-5.7005,-5.7062,-5.708,-5.7162,-5.707,-5.7152,-5.7155,-5.7137,-5.732,-5.7344,-5.7479,-5.7263,-5.7266,-5.7268,0,-5.6611,-5.6668,-5.681,-5.6857,-5.6886,-5.6951,-5.7013,-5.7072,-5.7119,-5.7127,-5.7169,-5.7157,-5.7241,-5.7178,-5.7293,-5.723,-5.7265,-5.7279,-5.7285,-5.7288,-5.7216,-5.7325,-5.7522,-5.7541,-5.7298,-5.7296,-5.7294,0,-5.6723,-5.6836,-5.6935,-5.6962,-5.7021,-5.7067,-5.7093,-5.7137,-5.7178,-5.7233,-5.7259,-5.7323,-5.7357,-5.7406,-5.7411,-5.7365,-5.7526,-5.7463,-5.7532,-5.7532,-5.7563,-5.756,-5.7765,-5.7592,-5.7592,-5.7592,-5.7591,0,-5.6879,-5.6966,-5.6986,-5.7046,-5.7143,-5.7146,-5.7241,-5.7264,-5.7303,-5.7367,-5.735,-5.7409,-5.7415,-5.7476,-5.7481,-5.7574,-5.7591,-5.7597,-5.7597,-5.7596,-5.7595,-5.7615,-5.7605,-5.7597,-5.7596,-5.7595,-5.7594,0,-5.7018,-5.7036,-5.7141,-5.719,-5.7204,-5.7273,-5.7313,-5.737,-5.7386,-5.7467,-5.7486,-5.7509,-5.7581,-5.7593,-5.7676,-5.768,-5.779,-5.7782,-5.7774,-5.7772,-5.7839,-5.7831,-5.806,-5.809,-5.7902,-5.7903,-5.7905,0,-5.7114,-5.7181,-5.7237,-5.7279,-5.7309,-5.7377,-5.7419,-5.7426,-5.7471,-5.7531,-5.7581,-5.7651,-5.7707,-5.7823,-5.7846,-5.791,-5.7901,-5.7978,-5.791,-5.7908,-5.7898,-5.7892,-5.7898,-5.7988,-5.7991,-5.7992,-5.7994,0,-5.7282,-5.7289,-5.7351,-5.7417,-5.7469,-5.7521,-5.757,-5.7605,-5.7619,-5.7669,-5.7743,-5.7787,-5.7874,-5.7943,-5.8008,-5.8033,-5.8015,-5.8016,-5.8034,-5.8032,-5.8024,-5.8026,-5.7805,-5.8009,-5.8007,-5.8006,-5.8005,-5.8005,-5.74,-5.7458,-5.7507,-5.7577,-5.7616,-5.7663,-5.7719,-5.7743,-5.7806,-5.7877,-5.7879,-5.7959,-5.8006,-5.809,-5.8121,-5.8183,-5.8158,-5.8186,-5.8192,-5.8198,-5.8203,-5.8018,-5.8195,-5.8195,-5.8195,-5.8194,-5.8194,0,-5.7564,-5.7596,-5.7661,-5.7731,-5.7787,-5.7769,-5.7823,-5.787,-5.7941,-5.7988,-5.8044,-5.8129,-5.8197,-5.8228,-5.8295,-5.8339,-5.8332,-5.8356,-5.835,-5.8356,-5.8223,-5.8198,-5.836,-5.836,-5.836,-5.836,-5.836,-5.836,-5.7656,-5.7752,-5.7765,-5.788,-5.791,-5.799,-5.8023,-5.8065,-5.8102,-5.8199,-5.8256,-5.8277,-5.8317,-5.8387,-5.8448,-5.8455,-5.8479,-5.8505,-5.8508,-5.8382,-5.8365,-5.8349,-5.8326,-5.8512,-5.8512,-5.8636,-5.8637,-5.8638]},{"header":{"parameterUnit":"m.s-1","parameterCategory":1,"la1":30.2991,"la2":30.254,"lo1":-89.0895,"lo2":-89.0444,"dy":0.0017,"dx":0.0017,"nx":28,"ny":28,"refTime":"2024-03-14T09:00:00:Z","depth":0,"parameterNumber":3,"parameterNumberName":"V-component_of_WINDS"},"data":[0,0,0,0,0,0,0,0,0,0,0,0,0,0,0,0,0,0,0,0,0,0,0,0,0,0,0,0,0,0,0,0,0,0,0,0,0,0,0,0,0,0,0,0,0,0,0,0,0,0,0,0,0,0,0,0,0,0,1.2463,1.2463,0,1.2465,1.2465,1.2465,1.2477,1.2477,1.2478,1.2478,1.2474,1.2474,1.2474,0,0,0,0,0,0,0,0,0,0,0,0,0,1.2465,1.2465,1.2463,1.2463,1.2463,1.2465,1.2465,1.2465,1.2477,1.2477,1.2478,1.2478,1.2475,1.2474,1.2474,0,0,0,0,0,0,0,0,0,0,0,0,0,1.2465,1.2465,1.2463,1.2469,1.247,1.2465,1.2465,1.2465,1.2477,1.2477,1.2478,1.2478,1.2475,1.2474,1.2474,1.2461,0,0,1.2472,1.2472,0,0,0,0,0,0,0,0,1.2465,1.2465,1.2468,1.2469,1.247,1.2472,1.2465,1.2464,1.2477,1.2474,1.2478,1.2479,1.2473,1.2472,1.2472,1.2461,1.2461,1.2472,1.2472,1.2471,1.2471,0,0,0,0,0,0,0,1.2465,1.2465,1.2464,1.2468,1.2469,1.2471,1.2472,1.2465,1.2471,1.2474,1.2475,1.2476,1.2473,1.2472,1.2472,1.2461,1.2472,1.2471,1.2471,1.2471,1.2443,1.2443,0,0,0,0,0,0,1.2465,1.2465,1.2464,1.2464,1.2469,1.2471,1.2471,1.247,1.2471,1.2471,1.2475,1.2476,1.2473,1.2472,1.2472,1.2459,1.2471,1.2471,1.247,1.2444,1.2443,1.2443,0,0,0,0,0,0,1.2465,1.2465,1.2463,1.2465,1.2465,1.247,1.2469,1.247,1.2469,1.2472,1.2472,1.2473,1.2473,1.2472,1.2465,1.2459,1.2471,1.247,1.2444,1.2444,1.2443,1.2432,0,0,0,0,0,0,1.2465,1.2465,1.2461,1.2465,1.2465,1.2457,1.2469,1.247,1.2469,1.247,1.247,1.247,1.2473,1.2466,1.2464,1.2458,1.247,1.2445,1.2444,1.2443,1.2433,1.2431,1.243,0,0,0,0,0,1.2465,1.2455,1.246,1.246,1.246,1.2457,1.2457,1.2462,1.2468,1.2464,1.2466,1.247,1.246,1.2465,1.2463,1.2457,1.2445,1.2444,1.2443,1.2434,1.2432,1.243,0,0,0,0,0,0,1.2447,1.2456,1.2461,1.2453,1.2455,1.2459,1.2453,1.2459,1.2458,1.2459,1.2464,1.2464,1.2456,1.2456,1.2461,1.2447,1.2454,1.2452,1.2447,1.2445,1.2443,1.2443,1.2469,0,0,0,0,0,1.2443,1.2442,1.2449,1.244,1.2441,1.2448,1.2446,1.2451,1.2452,1.2452,1.2453,1.2453,1.245,1.2447,1.2444,1.2434,1.2434,1.2429,1.2427,1.2426,1.2425,1.2421,1.2419,1.244,1.244,1.244,0,0,1.2432,1.2437,1.2435,1.2437,1.2439,1.2437,1.2448,1.2444,1.2442,1.2451,1.2445,1.2446,1.2446,1.2438,1.2434,1.2437,1.242,1.2425,1.2424,1.2423,1.242,1.2418,1.2416,1.2439,1.2439,1.244,0,0,1.2413,1.2416,1.2411,1.2414,1.2418,1.2423,1.2422,1.2426,1.2428,1.2423,1.2431,1.2428,1.2422,1.2423,1.2422,1.2408,1.2412,1.2406,1.2397,1.2394,1.2392,1.2391,1.2386,1.2385,1.2405,1.2405,1.2405,0,1.2399,1.2397,1.2407,1.2404,1.2405,1.2417,1.2411,1.2413,1.2415,1.2415,1.2419,1.2415,1.2415,1.2408,1.2405,1.2404,1.2403,1.2405,1.2392,1.2391,1.2389,1.2385,1.2384,1.2404,1.2404,1.2404,1.2405,0,1.2381,1.238,1.2375,1.238,1.2381,1.2376,1.2385,1.2384,1.239,1.2394,1.239,1.2392,1.2391,1.239,1.2393,1.2384,1.2386,1.2391,1.2398,1.2387,1.2383,1.2381,1.2403,1.2404,1.2404,1.2404,0,0,1.2346,1.2361,1.2359,1.2362,1.237,1.2368,1.2366,1.2367,1.2367,1.2369,1.2367,1.2364,1.237,1.2369,1.2374,1.2371,1.2361,1.2376,1.2377,1.2374,1.2352,1.2349,1.2347,1.2365,1.2365,1.2364,1.2353,0,1.2328,1.2326,1.2337,1.2331,1.2331,1.2344,1.2341,1.2345,1.235,1.235,1.2355,1.2353,1.2361,1.2361,1.2359,1.2363,1.2357,1.2364,1.2362,1.2362,1.2362,1.2345,1.234,1.2328,1.2351,1.2351,1.2351,0,1.2306,1.2311,1.2306,1.2317,1.2318,1.2315,1.232,1.232,1.2325,1.2329,1.2331,1.2338,1.2335,1.2343,1.2341,1.2345,1.2346,1.2348,1.2347,1.2347,1.2355,1.2344,1.2325,1.2323,1.2348,1.2349,1.2349,0,1.2283,1.2288,1.2287,1.2289,1.2301,1.23,1.2305,1.2311,1.2312,1.2316,1.2317,1.2319,1.232,1.2321,1.2328,1.2333,1.2325,1.2333,1.2328,1.2328,1.2325,1.2325,1.2306,1.2325,1.2325,1.2325,1.2325,0,1.2262,1.2258,1.2277,1.2276,1.2273,1.2286,1.2282,1.2288,1.2294,1.2294,1.2305,1.2304,1.2314,1.2315,1.2321,1.2319,1.2318,1.2321,1.2323,1.232,1.232,1.232,1.2321,1.2325,1.2325,1.2325,1.2325,0,1.2234,1.2246,1.2246,1.226,1.2263,1.2261,1.2272,1.2271,1.2279,1.2279,1.2279,1.229,1.2292,1.23,1.2302,1.2307,1.2302,1.2305,1.2301,1.2302,1.2297,1.2298,1.2277,1.2275,1.2296,1.2296,1.2295,0,1.2219,1.2218,1.2233,1.2235,1.2241,1.2243,1.2246,1.2259,1.2262,1.227,1.2269,1.2272,1.2275,1.2278,1.2285,1.2288,1.2291,1.2284,1.2291,1.229,1.2291,1.2291,1.2292,1.2281,1.2281,1.2281,1.2281,0,1.2192,1.22,1.2205,1.2213,1.2217,1.2223,1.2229,1.223,1.2245,1.2247,1.2251,1.2254,1.2259,1.2262,1.2267,1.2271,1.2278,1.2279,1.2278,1.2275,1.2273,1.2275,1.2297,1.2279,1.2279,1.2279,1.2279,1.2279,1.2171,1.2172,1.2184,1.2189,1.2197,1.2204,1.2205,1.2214,1.2218,1.2225,1.2233,1.2236,1.2244,1.2252,1.2255,1.2258,1.2261,1.226,1.2259,1.2259,1.2258,1.2274,1.2258,1.2258,1.2258,1.2259,1.2259,0,1.2145,1.2155,1.216,1.2171,1.2176,1.2187,1.2195,1.2198,1.2202,1.221,1.2214,1.222,1.2224,1.2233,1.2239,1.2239,1.2242,1.224,1.2239,1.2241,1.2254,1.2254,1.2237,1.2237,1.2237,1.2237,1.2237,1.2237,1.2133,1.2135,1.2144,1.215,1.2159,1.2165,1.2169,1.2176,1.2183,1.2189,1.2194,1.2201,1.221,1.2217,1.2221,1.2224,1.2225,1.2222,1.2225,1.2237,1.2239,1.2241,1.2242,1.2222,1.2222,1.2212,1.2212,1.2212]}]]